Tracking 17782 objects as of 25-July-2016
HD Live streaming from Space Station
objects crossing your sky now

TURKSAT 2A

Track TURKSAT 2A now!
TURKSAT 2A is classified as:


NORAD ID: 26666
Int'l Code: 2001-002A
Perigee: 35,776.4 km
Apogee: 35,812.6 km
Inclination: 0.5 °
Period: 1,436.1 minutes
Semi major axis: 42165 km
RCS: 3.9 m2 (large)
Launch date: January 10, 2001
Source: Turkey (TURK)
Launch site: FRENCH GUIANA (FRGUI)

32 Ku-band transponders; direct-to-home voice, video, and data transmissions to countries between central Europe and the Indian subcontinent.
Your satellite tracking list
Your tracking list is empty





NASA's NSSDC Master Catalog

Two Line Element Set (TLE):
1 26666U 01002A   16206.04408832  .00000135  00000-0  00000+0 0  9991
2 26666   0.4745  84.2796 0004303  20.0495 255.7129  1.00269090 56913
Source of the keplerian elements: AFSPC

N2YO: 732